Flag for Canada Weather past 2 weeks in Timmins, Ontario, Canada

Now
37 °F

Sprinkles. More clouds than sun.


Feels Like: 34 °F
Forecast: N/A
Wind: 5 mph from North

Location: Timmins

Current Time: Sep 17, 2014 at 7:52:47 PM

Latest Report: Sep 17, 2014 at 7:00 PM


Visibility: 15 mi

Pressure: 30.06 "Hg

Humidity: 87%

Dew point: 34 °F

Location of TimminsLocation

Historic Weather in Timmins — Graph

°F

Timmins temperature yesterday

Maximum temperature yesterday: 57 °F (at 12:00 PM)
Minimum temperature yesterday: 39 °F (at 9:00 PM)
Average temperature yesterday: 46 °F

Past Weeks' High & Low Weather Summary

 TemperatureHumidityPressure
High77 °F (Sep 8, 3:00 PM)100% (Sep 3, 4:00 AM)30.38 "Hg (Sep 3, 4:00 AM)
Low30 °F (Sep 12, 7:00 AM)42% (Sep 8, 3:00 PM)29.59 "Hg (Sep 11, 3:00 AM)
Average51 °F83%30.01 "Hg
* Reported Sep 2 6:00 PM — Sep 17 6:00 PM, Timmins, Weather by CustomWeather, © 2014

Note: Actual official high and low records may vary slightly from our data, if they occured in-between our weather recording intervals... More about our weather records

Advertising

Timmins weather history for previous 24 hours

 ConditionsComfort  
Time TempWeatherWind HumidityBarometerVisibility
6:00 PM
Sep 17
39 °FSprinkles. Mostly cloudy.12 mph87%30.06 "Hg15 mi
5:00 PM41 °FSprinkles. Partly sunny.6 mph87%30.04 "Hg15 mi
4:00 PM39 °FSprinkles. Mostly cloudy.9 mph87%30.03 "Hg15 mi
3:00 PM43 °FPartly sunny.3 mph61%30.03 "Hg15 mi
2:00 PM41 °FPartly sunny.2 mph70%30.03 "Hg15 mi
1:00 PM37 °FMostly cloudy.3 mph93%30.04 "Hg10 mi
12:00 PM36 °FLight rain. Mostly cloudy.2 mph93%30.05 "Hg5 mi
11:00 AM34 °FLight snow. Dense fog.2 mph100%30.05 "Hg1 mi
10:00 AM32 °FLight snow. Low clouds.No wind100%30.07 "Hg1 mi
9:00 AM34 °FLight snow. Overcast.5 mph93%30.07 "Hg2 mi
8:00 AM32 °FOvercast.2 mph100%30.05 "Hg15 mi
7:00 AM32 °FOvercast.2 mph100%30.03 "Hg15 mi
6:00 AM32 °FOvercast.No wind100%30.04 "Hg15 mi
5:00 AM32 °FPassing clouds.No wind100%30.04 "Hg15 mi
4:00 AM32 °FPassing clouds.3 mph100%30.03 "Hg15 mi
3:00 AM30 °FPassing clouds.6 mph100%30.03 "Hg15 mi
2:00 AM32 °FPassing clouds.6 mph100%30.03 "Hg15 mi
1:00 AM34 °FPassing clouds.3 mph100%30.03 "Hg15 mi
12:00 AM37 °FLight rain. Mostly cloudy.5 mph93%30.02 "Hg15 mi
11:00 PM
Sep 16
39 °FLight rain. Mostly cloudy.6 mph100%30.01 "Hg15 mi
10:00 PM39 °FLight rain. Overcast.6 mph100%30.00 "Hg15 mi
9:00 PM39 °FLight rain. Mostly cloudy.5 mph100%29.98 "Hg12 mi
8:00 PM41 °FLight rain. Fog.10 mph93%29.96 "Hg4 mi
7:00 PM45 °FLight rain. Fog.7 mph93%29.94 "Hg4 mi
Weather by CustomWeather, © 2014

See weather overviewHow to use our weather pages